User: anonymous   Login
Location: Unspecified
(0.0000°N, 0.0000°E)
Time: 19:11:52
(UTC+00:00)
Language:

STRELA 3 - Orbit

View from above orbital plane
View from above orbital plane
View from above satellite
View from above satellite

Ground track
Ground track

The orbit data is extracted from the following two-line orbital elements,

1 37153U 10043B   18139.69923070 +.00000014 +00000-0 +33648-4 0  9998
2 37153 082.4550 116.2321 0007874 016.6109 343.5230 12.40728692348534
Epoch (UTC): 19 May 2018 16:46:53
Eccentricity: 0.0007874
inclination: 82.4550°
perigee height: 1497 km
apogee height: 1510 km
right ascension of ascending node: 116.2321°
argument of perigee: 16.6109°
revolutions per day: 12.40728692
mean anomaly at epoch: 343.5230°
orbit number at epoch: 34853

The dashed part of the orbit path shows where the satellite is in the earth's shadow,  

DLR